TimeEDT,TemperatureF,Dew PointF,Humidity,Sea Level PressureIn,VisibilityMPH,Wind Direction,Wind SpeedMPH,Gust SpeedMPH,PrecipitationIn,Events,Conditions,WindDirDegrees,DateUTC
12:56 AM,53.1,37.9,57,30.18,10.0,NNE,8.1,-,N/A,,Clear,20,2013-05-14 04:56:00
1:56 AM,54.0,37.9,55,30.19,10.0,NNE,4.6,-,N/A,,Mostly Cloudy,30,2013-05-14 05:56:00
2:56 AM,53.1,37.9,57,30.19,10.0,North,8.1,-,N/A,,Partly Cloudy,350,2013-05-14 06:56:00
3:56 AM,51.1,37.9,61,30.20,10.0,North,4.6,-,N/A,,Clear,10,2013-05-14 07:56:00
4:56 AM,46.0,41.0,83,30.21,10.0,WNW,3.5,-,N/A,,Clear,290,2013-05-14 08:56:00
5:56 AM,45.0,41.0,86,30.22,10.0,Calm,Calm,-,N/A,,Clear,0,2013-05-14 09:56:00
6:56 AM,45.0,42.1,90,30.24,10.0,NNW,3.5,-,N/A,,Clear,340,2013-05-14 10:56:00
7:56 AM,53.1,39.0,59,30.26,7.0,NNW,3.5,-,N/A,,Clear,340,2013-05-14 11:56:00
8:56 AM,57.9,36.0,44,30.27,10.0,NNE,6.9,-,N/A,,Clear,20,2013-05-14 12:56:00
9:56 AM,61.0,30.0,31,30.27,10.0,NE,4.6,-,N/A,,Clear,40,2013-05-14 13:56:00
10:56 AM,62.1,28.9,29,30.27,10.0,Calm,Calm,-,N/A,,Clear,0,2013-05-14 14:56:00
11:56 AM,64.9,30.0,27,30.26,10.0,NNW,12.7,18.4,N/A,,Clear,330,2013-05-14 15:56:00
12:04 PM,-9999,-9999,N/A,-9999,-9999.0,North,-9999.0,-,N/A,,Unknown,0,2013-05-14 16:04:00
12:56 PM,66.9,32.0,27,30.25,10.0,NW,11.5,20.7,N/A,,Clear,310,2013-05-14 16:56:00
1:56 PM,66.9,30.9,26,30.22,10.0,NNW,12.7,-,N/A,,Clear,340,2013-05-14 17:56:00
2:56 PM,69.1,32.0,25,30.19,10.0,WSW,6.9,-,N/A,,Clear,240,2013-05-14 18:56:00
3:56 PM,71.1,32.0,24,30.18,10.0,NW,6.9,16.1,N/A,,Clear,310,2013-05-14 19:56:00
4:56 PM,71.1,33.1,25,30.17,10.0,WNW,8.1,-,N/A,,Clear,290,2013-05-14 20:56:00
5:56 PM,66.9,42.1,40,30.18,10.0,South,10.4,-,N/A,,Clear,190,2013-05-14 21:56:00
6:56 PM,64.0,44.1,48,30.17,10.0,SSW,9.2,-,N/A,,Clear,200,2013-05-14 22:56:00
7:56 PM,61.0,45.0,56,30.17,10.0,South,8.1,-,N/A,,Clear,190,2013-05-14 23:56:00
8:56 PM,59.0,45.0,60,30.17,10.0,South,6.9,-,N/A,,Clear,190,2013-05-15 00:56:00
9:56 PM,57.9,45.0,62,30.19,10.0,South,5.8,-,N/A,,Clear,190,2013-05-15 01:56:00
10:56 PM,59.0,44.1,58,30.18,10.0,SSW,6.9,-,N/A,,Clear,210,2013-05-15 02:56:00
11:56 PM,59.0,45.0,60,30.16,10.0,SSW,8.1,-,N/A,,Clear,200,2013-05-15 03:56:00